TimeEST,TemperatureF,Dew PointF,Humidity,Sea Level PressureIn,VisibilityMPH,Wind Direction,Wind SpeedMPH,Gust SpeedMPH,PrecipitationIn,Events,Conditions,WindDirDegrees,DateUTC
12:56 AM,31.1,23.0,72,30.20,10.0,Calm,Calm,-,N/A,,Overcast,0,2012-11-06 05:56:00
1:56 AM,31.1,24.1,75,30.21,10.0,Calm,Calm,-,N/A,,Overcast,0,2012-11-06 06:56:00
2:56 AM,30.0,22.1,72,30.19,10.0,Calm,Calm,-,N/A,,Overcast,0,2012-11-06 07:56:00
3:56 AM,31.1,21.0,66,30.19,10.0,Calm,Calm,-,N/A,,Overcast,0,2012-11-06 08:56:00
4:56 AM,30.0,24.1,79,30.19,10.0,Calm,Calm,-,N/A,,Overcast,0,2012-11-06 09:56:00
5:56 AM,31.1,20.1,64,30.20,10.0,Calm,Calm,-,N/A,,Overcast,0,2012-11-06 10:56:00
6:14 AM,30.2,21.2,69,30.16,10.0,Calm,Calm,-,N/A,,Overcast,0,2012-11-06 11:14:00
6:56 AM,30.0,24.1,79,30.20,10.0,Calm,Calm,-,N/A,,Overcast,0,2012-11-06 11:56:00
7:56 AM,31.1,21.0,66,30.22,10.0,Calm,Calm,-,N/A,,Overcast,0,2012-11-06 12:56:00
8:56 AM,32.0,20.1,62,30.23,10.0,Calm,Calm,-,N/A,,Overcast,0,2012-11-06 13:56:00
9:56 AM,32.0,20.1,62,30.23,10.0,ESE,4.6,-,N/A,,Overcast,120,2012-11-06 14:56:00
10:56 AM,34.9,21.0,57,30.22,10.0,SSE,5.8,-,N/A,,Mostly Cloudy,150,2012-11-06 15:56:00
11:56 AM,36.0,21.0,55,30.19,10.0,SSE,5.8,-,N/A,,Scattered Clouds,150,2012-11-06 16:56:00
12:56 PM,37.9,21.0,51,30.17,10.0,Variable,6.9,-,N/A,,Partly Cloudy,0,2012-11-06 17:56:00
1:56 PM,38.8,21.0,49,30.15,10.0,SSE,5.8,-,N/A,,Clear,150,2012-11-06 18:56:00
2:56 PM,39.9,21.0,47,30.13,10.0,Variable,4.6,-,N/A,,Clear,0,2012-11-06 19:56:00
3:56 PM,38.8,20.1,47,30.13,10.0,SSE,4.6,-,N/A,,Clear,150,2012-11-06 20:56:00
5:56 PM,29.1,22.1,75,30.13,10.0,Calm,Calm,-,N/A,,Clear,0,2012-11-06 22:56:00
6:56 PM,27.1,22.1,81,30.14,10.0,ENE,3.5,-,N/A,,Clear,70,2012-11-06 23:56:00
7:56 PM,26.1,21.0,81,30.14,10.0,ENE,4.6,-,N/A,,Clear,70,2012-11-07 00:56:00
8:56 PM,27.1,21.0,78,30.14,10.0,East,4.6,-,N/A,,Clear,80,2012-11-07 01:56:00
9:56 PM,26.1,20.1,78,30.12,10.0,ENE,5.8,-,N/A,,Clear,70,2012-11-07 02:56:00
10:56 PM,26.1,21.0,81,30.09,10.0,East,6.9,-,N/A,,Clear,90,2012-11-07 03:56:00
11:56 PM,25.2,20.1,81,30.12,10.0,East,6.9,-,N/A,,Clear,80,2012-11-07 04:56:00